THORAD DELTA 1 DEB, 42591

Orbit data source: Space-Track

THORAD DELTA 1 DEB, 42591 is space debris in SSO originally from a launch on Fri, 15 Nov 1974 UTC launched from the Air Force Western Test Range (AFWTR). Debris objects in space refer to the collection of defunct objects orbiting the Earth. Examples of debris include non-operational satellites, rocket bodies, and fragments generated from explosions, collisions, or faulty payload assembly.

Loading next visibility...
Identifier
42591, 1974-089BV
Orbit
SSO
Country
Flag of USUS
Related business
Manufacturer
Unknown
Mission
Spacecraft
Bus & Motor
Unknown
Mass
Unknown
Launch date (UTC)
1974-11-15 (52 years ago)
Launch vehicle
Unknown
Launch site
Air Force Western Test Range (AFWTR)
Object type
Payload
Rocket body
Debris
Shape & HBR
Unknown shape, 0.1 m
Radar Cross Section
Small (<0.1 m²)

Expand to show TLE details & history
Last TLE update: 2 weeks ago

TLE from 2 weeks ago
0 THORAD DELTA 1 DEB
1 42591U 74089BV  26164.01625676 -.00000001  00000-0  33576-3 0  9990
2 42591 101.8267 273.5702 0115284 247.9661 110.9121 12.34045364813784
Epoch: 2026-06-13T00:23Z
TLE epoch observation values (Epoch: 2026-06-13T00:23:24.584Z)
Latitude
0.00002°
Longitude
6.38036°
Altitude
1,567.961 km
Speed
7.069 km/s
True Right ascension
18h 14m 16s
True Declination
0° 00' 00"
Sunlit
Object was in full shadow at epoch
Visualization orbit readout
Latitude
Unknown
Longitude
Unknown
Altitude
Unknown
Speed
Unknown
Apparent Right ascension
Unknown
Apparent Declination
Unknown
Sunlit
N/A
Visualization observer readout
Local Sidereal Time
21:29:29
Azimuth
Unknown
Elevation
Unknown
Doppler factor
Unknown
Orbital elements
Apogee altitude
1,620.681 km
Perigee altitude
1,438.356 km
Semi-major axis
7,907.656 km
Eccentricity
0.01153
Inclination
101.8267°
RAAN
273.5702°
Arg. of periapsis
247.9661°
True anomaly
112.13973°
Mean anomaly
110.9121°
Eccentric anomaly
111.52656°
Mean motion
3.08654 °/min
Orbital period
116.64 mins
BSTAR
0.00033576
Loading maneuver chart data...
Computing Atmospheric mass density...

Documentation

Showing up to 5 results
|